NATIONAL KEY DEER NWR FL US current weather conditions

sailwx.info

Wind from 084 at 3 knots gusting 6

Air temperature 28.9° C
Dewpoint 23.8° C

Last reported at 2014-Sep-16 12:38 UTC.
Time now 2014-Sep-16 13:24 UTC

Location: N 24°43' W 081°23'.
View on Google Maps.

See reports from other nearby stations

  
Tides and Currents Weather Stations Pressure Air Temp Water Temp Dewpoint Dewpoint Depression Visibility Wind Speed Wind Dir Waves Ship Positions
date/time (UTC)wind fromknots sea level pressurealtimeterstation pressurevisibilityair tempwater tempwave heightnotes
2014-Sep-16 12:38 084 3 gusting 6 28.9
2014-Sep-16 11:38 085 2 gusting 5 27.2
2014-Sep-16 10:38 081 3 gusting 6 27.2
2014-Sep-16 09:38 069 3 gusting 6 27.2
2014-Sep-16 08:38 076 4 gusting 6 27.2
2014-Sep-16 07:38 081 3 gusting 7 27.2
2014-Sep-16 06:38 079 4 gusting 7 27.8
2014-Sep-16 05:38 079 3 gusting 7 27.8
2014-Sep-16 04:38 083 4 gusting 9 27.8
2014-Sep-16 03:38 081 5 gusting 8 27.8
2014-Sep-16 02:38 088 3 gusting 6 27.8
2014-Sep-16 01:38 107 2 gusting 6 27.8
2014-Sep-16 00:38 112 2 gusting 6 28.3
2014-Sep-15 23:38 124 4 gusting 9 28.3
2014-Sep-15 22:38 126 4 gusting 9 30.0
2014-Sep-15 21:38 107 4 gusting 10 31.1
2014-Sep-15 20:38 093 5 gusting 10 31.7
2014-Sep-15 19:38 099 4 gusting 10 32.2
2014-Sep-15 18:38 089 6 gusting 10 32.2
2014-Sep-15 17:38 091 5 gusting 12 31.7
2014-Sep-15 16:38 082 6 gusting 11 31.7
2014-Sep-15 15:38 051 6 gusting 10 31.1
2014-Sep-15 14:38 066 5 gusting 8 31.1
2014-Sep-15 13:38 052 5 gusting 7 30.0
2014-Sep-15 12:38 064 3 gusting 6 28.9
2014-Sep-15 11:38 081 2 gusting 5 26.7
2014-Sep-15 10:38 084 3 gusting 5 27.2
2014-Sep-15 09:38 073 2 gusting 6 27.2
2014-Sep-15 08:38 091 3 gusting 8 27.8
2014-Sep-15 07:38 096 3 gusting 8 27.8
2014-Sep-15 06:38 098 4 gusting 7 27.8
2014-Sep-15 05:38 099 3 gusting 7 27.8
2014-Sep-15 04:38 085 4 gusting 8 27.8
2014-Sep-15 03:38 096 4 gusting 8 27.8
2014-Sep-15 02:38 092 5 gusting 10 27.8
2014-Sep-15 01:38 087 6 gusting 12 27.8
2014-Sep-15 00:38 090 5 gusting 9 27.8
2014-Sep-14 23:38 092 5 gusting 10 27.8
2014-Sep-14 22:38 092 5 gusting 9 28.3
2014-Sep-14 21:38 064 5 gusting 9 28.3
2014-Sep-14 20:38 058 4 gusting 8 27.8
2014-Sep-14 19:38 072 5 gusting 7 27.2
2014-Sep-14 18:38 053 2 gusting 4 26.1
2014-Sep-14 17:38 005 1 gusting 3 25.0
2014-Sep-14 16:38 257 1 gusting 3 23.3
2014-Sep-14 15:38 246 2 gusting 22 21.7
2014-Sep-14 14:38 251 6 gusting 12 26.1
2014-Sep-14 13:38 157 3 gusting 6 28.9